Location: Augsburg
(48.3836°N, 10.8929°E)
Time: 06:06:50
(UTC+01:00)

ISS - Pass Details

Date: 03 December 2021
Orbit: 413 x 423 km, 51.6° (Epoch: 20 January)

Event Time Altitude Azimuth Distance (km) Brightness Sun altitude
Rises 18:41:23 0° 291° (WNW) 2,382 1.0 -22.1°
Reaches altitude 10° 18:43:31 10° 288° (WNW) 1,513 -0.1 -22.4°
Enters shadow 18:46:24 51° 245° (WSW) 538 -3.0 -22.9°
